Location: Unspecified
(54.1780°N, 0.0000°E)
Time: 09:17:36
(UTC+00:00)

S-56A Canister/Altair - Pass Details

Date: 20 June 2019
Orbit: 633 x 2499 km, 38.9° (Epoch: 24 August)

Event Time Altitude Azimuth Distance (km) Brightness Sun altitude
Rises 16:42:26 0° 222° (SW) 4,641 12.1 30.3°
Reaches altitude 10° 16:47:12 10° 204° (SSW) 3,257 11.1 29.6°
Maximum altitude 16:51:39 16° 169° (S) 2,435 10.1 28.9°
Drops below altitude 10° 16:55:20 10° 132° (SE) 2,585 9.9 28.4°
Sets 16:58:29 0° 110° (ESE) 3,294 10.3 27.9°
